Last 30 Days

OV-Siberia 8700'

Daily Data | America/Los_Angeles
as of 2/24/24 1:30 AM PST
Date Daily Max Temp (°F) Time of Max Temp Daily Min Temp (°F) Time of Min Temp Wind Spd (mph) Daily Max Wind (mph) Time of Max Wind Max Wind Dir (°) Wet Bulb (°F) WetB Hrs <28F (hrs)
2/23/24 35.0 2249 22.1 0319 17.1 41.7 0813 E | 99 24.8 24.0
2/22/24 27.7 1341 16.6 0355 9.4 28.4 0004 SE | 124 22.6 24.0
2/21/24 27.5 1123 18.7 2338 25.7 58.1 0312 SSW | 196 21.9 24.0
2/20/24 26.6 1236 20.7 0612 38.4 87.6 0028 SW | 222 22.7 24.0
2/19/24 27.8 0001 22.2 0735 57.7 123.5 0511 S | 185 24.7 24.0
2/18/24 29.7 2210 21.4 0853 44.8 100.6 2158 SSW | 205 26.1 17.1
2/17/24 31.1 0803 24.5 2330 37.5 123.7 2217 SE | 132 25.5 24.0
2/16/24 33.3 1358 20.8 0002 12.1 38.1 2353 SSW | 202 26.5 16.2
2/15/24 24.6 1401 19.7 1759 33.9 106.6 0103 SW | 222 21.6 24.0
2/14/24 24.6 1129 20.1 0735 51.7 105.9 2135 SSW | 202 22.1 24.0
2/13/24 30.7 1122 21.4 2011 27.1 51.4 1554 SW | 219 22.1 24.0
2/12/24 38.4 1203 25.1 2359 15.6 30.3 1811 SW | 225 24.2 22.1
2/11/24 36.6 1414 27.8 0544 7.3 30.7 0312 W | 259 26.9 14.0
2/10/24 33.5 2329 8.9 0457 25.5 58.9 0704 SSE | 149 14.2 24.0
2/9/24 21.1 1224 11.8 2355 17.7 59.6 2340 NE | 48 16.1 24.0
2/8/24 27.1 0934 12.8 0001 11.1 33.2 0035 NE | 45 17.8 24.0
2/7/24 20.3 1250 16.1 2110 30.4 75.6 0859 SE | 143 18.1 24.0
2/6/24 28.7 1404 19.0 2357 4.3 17.4 1453 ESE | 119 21.9 23.6
2/5/24 24.2 1305 21.2 0757 43.4 148.1 0049 S | 179 22.6 24.0
2/4/24 28.4 1244 17.0 0001 41.9 123.2 2316 SSE | 168 23.5 22.6
2/3/24 22.6 1455 10.9 0640 19.3 62.2 0034 S | 182 15.9 24.0
2/2/24 22.1 1204 13.4 2338 33.6 75.6 1825 SSW | 209 17.9 24.0
2/1/24 27.1 0211 18.0 2359 31.6 77.2 0005 S | 170 22.8 24.0
1/31/24 35.7 0003 26.0 1618 51.2 100.1 1440 SE | 146 27.9 11.2
1/30/24 41.3 1515 33.6 2221 28.7 67.2 2320 SW | 217 33.7 0.0
1/29/24 47.1 1234 37.8 1934 15.3 42.7 0114 ENE | 70 36.1 0.0
1/28/24 50.4 1206 40.9 0119 11.1 36.7 2310 NE | 48 37.0 0.0
1/27/24 45.1 1539 37.1 0046 11.3 32.3 0022 S | 191 36.4 0.0
1/26/24 38.1 2319 21.1 0001 15.6 31.2 2318 SW | 220 29.9 9.8
1/25/24 30.0 1156 19.9 0745 14.6 64.9 0106 SSE | 147 23.0 22.3
Max 50.4 - 40.9 - 57.7 148.1 - - 37.0 24.0
Avg - - - - 26.2 - - - 24.2 -
Min 20.3 - 8.9 - 4.3 17.4 - - 14.2 0.0